Regional Weather Roundup
Issued by NWS

Home | Current Version | Previous Version | Graphics & Text | Print | Product List | Glossary On
Versions: 1 2 3 4 5 6 7 8 9 10 11 12 13 14 15 16 17 18 19 20 21 22 23 24 25 26 27 28 29 30 31 32 33 34 35 36 37 38 39 40 41 42 43 44 45 46 47 48 49 50
000
ASUS43 KMPX 100210
RWRMN
WEATHER ROUNDUP FOR MINNESOTA
NATIONAL WEATHER SERVICE TWIN CITIES/CHANHASSEN MN
800 PM CST FRI DEC 09 2016


NOTE: "FAIR" INDICATES FEW OR NO CLOUDS BELOW 12,000 FEET WITH NO
SIGNIFICANT WEATHER AND/OR OBSTRUCTIONS TO VISIBILITY. N/A MEANS
CURRENT SKY AND/OR WEATHER CONDITIONS ARE NOT AVAILABLE.

MNZ060>063-068>070-100300-
   Twin Cities Metro

CITY           SKY/WX    TMP DP  RH WIND       PRES   REMARKS
TWIN CITIES    FLURRIES  14   6  70 W10       30.50S WCI   1
ST PAUL        CLOUDY    14   5  67 W9        30.52S WCI   2
CRYSTAL        CLOUDY    12   3  67 NW7       30.49F WCI   1
BLAINE         CLOUDY    14   7  73 W9        30.48F WCI   2
LAKEVILLE      CLEAR      9   5  85 W6        30.49F WCI  -1
EDEN PRAIRIE   PTCLDY    11   4  73 W9        30.50S WCI  -2
SOUTH ST PAUL  CLOUDY    15   6  67 W6        30.50S WCI   6
LAKE ELMO      CLOUDY    16   9  73 W8        30.49F WCI   5
$$
MNZ001>005-007-008-013>017-022>024-027-028-100300-
   Northwest Minnesota

CITY           SKY/WX    TMP DP  RH WIND       PRES   REMARKS
BEMIDJI        CLOUDY     1  -5  78 W8        30.46S WCI -14
HALLOCK        CLOUDY     0  -6  78 NW8       30.54F WCI -15
ROSEAU         MOCLDY    -2  -8  78 W7        30.50S WCI -16
WARROAD        CLEAR     -2  -8  78 W6        30.48S WCI -14
THIEF RVR FALL CLEAR     -9 -13  83 NW3       30.52F
CROOKSTON      CLEAR     -8 -11  84 NW5       30.56F WCI -19
FOSSTON        CLOUDY    -2  -8  78 W8        30.50S WCI -17
DETROIT LAKES  CLOUDY     0  -4  85 NW8       30.49F WCI -15
MOORHEAD       CLOUDY    -2  -8  78 NW7       30.56S WCI -16
PARK RAPIDS    CLOUDY     3  -7  63 NW8       30.45S WCI -10
$$
MNZ006-009>011-018-025>026-100300-
   North Central Minnesota

CITY           SKY/WX    TMP DP  RH WIND       PRES   REMARKS
BAUDETTE       MOCLDY    -2  -9  72 W9        30.44F WCI -18
FLAG ISLAND    PTCLDY     0  -6  78 W9        30.46S WCI -16
INTL FALLS     PTCLDY    -3  -8  79 W7        30.44S WCI -16
WASKISH        CLOUDY     1  -6  71 W10       30.47S WCI -14
BIG FORK       CLOUDY     3  -2  78 CALM      30.44S
LONGVILLE      FLURRIES   7   0  72 NW5       30.45R WCI  -2
GRAND RAPIDS   FLURRIES   6  -1  73 NW8       30.45S WCI  -7
CRANE LAKE     CLOUDY     3  -2  78 W3        30.45S
ORR            CLOUDY     1  -6  71 CALM      30.39F
COOK           CLOUDY     3  -4  72 W14       30.42S WCI -15
$$
MNZ012-019>021-037-100300-
   Northeast Minnesota

CITY           SKY/WX    TMP DP  RH WIND       PRES   REMARKS
DULUTH         FLURRIES   6   1  80 NW5       30.41S WCI  -3
ELY            CLOUDY     3  -4  72 W7        30.40S WCI  -9
HIBBING        LGT SNOW   4   0  83 NW5       30.42R FOG     WCI  -5
EVELETH        MOCLDY     6  -2  69 NW3       30.42S
DULUTH HARBOR  CLOUDY    12   3  67 CALM      30.49F
TWO HARBORS    CLEAR      1  -4  78 CALM      30.42S
SILVER BAY     CLOUDY     7  -2  66 CALM      30.41F
GRAND MARAIS     N/A     12   4  70 VRB5      30.42S WCI   4
G MARAIS ARPRT CLOUDY     5  -2  72 W5        30.30S WCI  -4
$$
MNZ029>031-032-039>041-046>048-054>057-064-100300-
   West Central Minnesota

CITY           SKY/WX    TMP DP  RH WIND       PRES   REMARKS
FERGUS FALLS   CLOUDY     1  -2  85 NW13      30.58S WCI -16
WHEATON        CLEAR      1   0  92 W5        30.57F WCI  -8
MORRIS         CLEAR      1  -2  85 NW6       30.52S WCI -10
ALEXANDRIA     CLEAR      0  -5  79 NW8       30.49S WCI -14
ELBOW LAKE     FAIR       0  -4  85 N5        30.52S WCI -10
WADENA         CLOUDY     0  -6  78 NW5       30.47S WCI -10
GLENWOOD       CLOUDY     3  -2  78 NW12      30.49F WCI -13
APPLETON       CLOUDY     7   0  72 NW8       30.54S WCI  -6
BENSON         CLOUDY     3   0  85 N8        30.53R WCI -10
ORTONVILLE     CLOUDY     5  -2  72 NW5       30.54S WCI  -4
MADISON        CLOUDY     9   1  72 NW9       30.54F WCI  -5
WILLMAR        MOCLDY     7   1  78 CALM      30.52F
$$
MNZ033>034-036-042>043-049>051-058-059-100300-
   Central Minnesota

CITY           SKY/WX    TMP DP  RH WIND       PRES   REMARKS
ST CLOUD       CLOUDY     8   1  73 W9        30.49F WCI  -5
PAYNESVILLE    CLEAR      4  -1  79 W7        30.51S WCI  -8
AITKIN         CLOUDY    10  -2  56 W3        30.44S
PINE RIVER     CLOUDY     7   0  72 W5        30.48S WCI  -2
BRAINERD       CLOUDY     8   0  69 W6        30.46S WCI  -2
LONG PRAIRIE   FAIR       1  -4  78 SW6       30.48F WCI -10
LITTLE FALLS   CLOUDY     9   0  66 W6        30.49S WCI  -1
LITCHFIELD     CLOUDY     9   1  72 NW7       30.51S WCI  -3
BUFFALO        CLOUDY    10   3  72 W9        30.51S WCI  -2
MAPLE LAKE     MOCLDY    10   4  76 W8        30.51S WCI  -2
HUTCHINSON     CLOUDY     9   4  77 W9        30.51F WCI  -4
$$
MNZ037-044-045-052-053-100300-
   East Central Minnesota

CITY           SKY/WX    TMP DP  RH WIND       PRES   REMARKS
PRINCETON      CLOUDY    12   5  73 W7        30.48S WCI   2
MORA           CLOUDY    12   3  67 NW8       30.48F WCI   1
CAMBRIDGE      FLURRIES  14   3  62 NW9       30.46F WCI   2
RUSH CITY      CLOUDY    12   3  67 NW3       30.48S
MOOSE LAKE     CLOUDY    10   1  67 W5        30.44S WCI   2
HINCKLEY       CLOUDY    12   5  73 NW3       30.46F
CLOQUET        LGT SNOW   9   1  72 NW3       30.42F
MCGREGOR       CLOUDY    10   5  79 N6        30.45S WCI   1
$$
MNZ071>073-080-081-089-090-097-098-100300-
   Southwest Minnesota

CITY           SKY/WX    TMP DP  RH WIND       PRES   REMARKS
MONTEVIDEO     CLOUDY     7   0  72 N7        30.55S WCI  -5
GRANITE FALLS  CLOUDY     9   3  78 NW9       30.55S WCI  -5
CANBY          MOCLDY     7   2  80 CALM      30.54S
MARSHALL       FLURRIES   7   2  80 N10       30.52F WCI  -8
REDWOOD FALLS  CLOUDY     9   1  70 NW7       30.52F WCI  -2
OLIVIA         CLEAR      9   3  78 NW8       30.51F WCI  -4
PIPESTONE      FLURRIES  10   7  85 N3        30.45S
WINDOM         CLOUDY    10   7  85 CALM      30.48F
WORTHINGTON    LGT SNOW  13   9  84 N5        30.46F FOG     WCI   5
JACKSON        LGT SNOW  14  10  85 VRB3      30.47F
TRACY          LGT SNOW   8   5  86 N7        30.50S WCI  -3
SLAYTON        FLURRIES  10   7  87 N7        30.47S WCI  -1
$$
MNZ065>067-074>077-082>085-091>093-100300-
   South Central Minnesota

CITY           SKY/WX    TMP DP  RH WIND       PRES   REMARKS
MANKATO        LGT SNOW  11   8  88 NW6       30.51F FOG     WCI   1
NEW ULM        CLOUDY    10   5  79 NW7       30.51F WCI   0
ST JAMES       FLURRIES  12   9  85 W7        30.52S WCI   2
FAIRMONT       LGT SNOW  14  10  84 N6        30.51R FOG     WCI   5
GLENCOE        CLOUDY    10   6  83 W7        30.50F WCI  -1
FARIBAULT      CLOUDY    10   7  85 W8        30.50S WCI  -1
OWATONNA       FLURRIES  12   9  85 W7        30.49S WCI   2
WASECA         LGT SNOW  12   9  85 W5        30.51S WCI   4
ALBERT LEA     LGT SNOW  19  16  86 W5        30.48S WCI  13
$$
MNZ078>079-086>088-094>096-100300-
   Southeast Minnesota

CITY           SKY/WX    TMP DP  RH WIND       PRES   REMARKS
ROCHESTER      CLOUDY    12   9  87 W7        30.46F WCI   1
RED WING       CLOUDY    16   7  67 W7        30.49S WCI   6
STANTON        PTCLDY    12   7  79 W7        30.49F WCI   2
DODGE CENTER   LGT SNOW  12  10  92 W10       30.46S WCI  -1
WINONA         PTCLDY    18  12  79 W5        30.51S WCI  11
AUSTIN         LGT SNOW  16  10  79 W9        30.47F WCI   4
PRESTON        CLOUDY    13   9  83 W6        30.47S WCI   4
$$
ABBREVIATIONS USED IN REMARKS
   TC - TEMPERATURES IN CELSIUS
  WCI - WIND CHILL INDEX
   HX - HEAT INDEX
  VSB - VISIBILITY
$$




USA.gov is the U.S. government's official web portal to all federal, state and local government web resources and services.